Location: Bogis-Bossey
(46.3500°N, 6.1667°E)
Time: 17:10:09
(UTC+00:00)

Terra - Pass Details

Date: 17 August 2022
Orbit: 701 x 703 km, 98.1° (Epoch: 01 October)

Event Time Altitude Azimuth Distance (km) Brightness Sun altitude
Exits shadow 20:38:46 32° 110° (ESE) 1,206 2.5 -18.0°
Maximum altitude 20:40:16 41° 69° (ENE) 1,022 2.4 -18.2°
Drops below altitude 10° 20:44:44 10° 360° (N) 2,182 5.0 -18.7°
Sets 20:47:05 0° 353° (N) 3,105 6.0 -19.0°
